Location: Unspecified
(0.0000°N, 0.0000°E)
Time: 07:21:10
(UTC+00:00)

ISS - Pass Details

Date: 21 October 2019
Orbit: 417 x 420 km, 51.6° (Epoch: 27 May)

Event Time Altitude Azimuth Distance (km) Brightness Sun altitude
Exits shadow 03:55:56 27° 92° (E) 849 -1.6 -26.7°
Drops below altitude 10° 03:58:04 10° 60° (ENE) 1,508 -0.4 -26.2°
Sets 04:00:18 0° 50° (NE) 2,374 0.6 -25.6°
